When you browse on this site, cookies collect data to enhance your experience and personalize the content and advertising you see.
Visit our Privacy Policy to learn more. By continuing to use the site, you agree to this use of cookies and data.
  • In Czech Republic
  • List of Countries
  • For 7 days
  • Water Temperature
  • Weather Map
  • Weather Widgets
  • user-avatar
    Login

    Hourly Weather Fagersta

    Today, 19 November, Tuesday

    Time Temperature Precipitation Wind Pressure Humidity
    00:00 +7°C° 0 mm 3 mps 748 mmHg 95%
    01:00 +7°C° 0 mm 3 mps 748 mmHg 95%
    02:00 +7°C° 0.1 mm 3 mps 747 mmHg 95%
    03:00 +7°C° 0.1 mm 3 mps 747 mmHg 95%
    04:00 +7°C° 0.1 mm 3 mps 746 mmHg 96%
    05:00 +7°C° 0.3 mm 3 mps 746 mmHg 96%
    06:00 +6°C° 0.3 mm 4 mps 746 mmHg 96%
    07:00 +6°C° 0.3 mm 4 mps 746 mmHg 95%
    08:00 +6°C° 0.9 mm 4 mps 746 mmHg 96%
    09:00 +7°C° 0.9 mm 3 mps 746 mmHg 96%
    10:00 +7°C° 0.9 mm 3 mps 746 mmHg 97%
    11:00 +7°C° 0.2 mm 3 mps 746 mmHg 92%
    12:00 +6°C° 0.2 mm 4 mps 746 mmHg 87%
    13:00 +6°C° 0.2 mm 4 mps 747 mmHg 82%
    14:00 +5°C° 0 mm 4 mps 747 mmHg 82%
    15:00 +5°C° 0 mm 3 mps 747 mmHg 83%
    16:00 +4°C° 0 mm 3 mps 747 mmHg 83%
    17:00 +4°C° 0.3 mm 3 mps 747 mmHg 86%
    18:00 +5°C° 0.3 mm 2 mps 747 mmHg 90%
    19:00 +4°C° 0.3 mm 2 mps 747 mmHg 93%
    20:00 +5°C° 0.1 mm 1 mps 748 mmHg 94%
    21:00 +4°C° 0.1 mm 1 mps 748 mmHg 95%
    22:00 +4°C° 0.1 mm 1 mps 748 mmHg 96%
    23:00 +4°C° 0 mm 1 mps 749 mmHg 96%

    Tomorrow, 20 November, Wednesday

    Time Temperature Precipitation Wind Pressure Humidity
    00:00 +4°C° 0 mm 1 mps 750 mmHg 96%
    01:00 +3°C° 0 mm 1 mps 750 mmHg 96%
    02:00 +4°C° 0 mm 1 mps 751 mmHg 95%
    03:00 +4°C° 0 mm 1 mps 751 mmHg 94%
    04:00 +4°C° 0 mm 1 mps 752 mmHg 94%
    05:00 +3°C° 0 mm 1 mps 752 mmHg 93%
    06:00 +3°C° 0 mm 1 mps 753 mmHg 93%
    07:00 +3°C° 0 mm 1 mps 754 mmHg 93%
    08:00 +3°C° 0 mm 1 mps 754 mmHg 92%
    09:00 +3°C° 0 mm 1 mps 755 mmHg 90%
    10:00 +4°C° 0 mm 1 mps 756 mmHg 88%
    11:00 +4°C° 0 mm 1 mps 756 mmHg 88%
    12:00 +5°C° 0 mm 1 mps 757 mmHg 87%
    13:00 +5°C° 0 mm 1 mps 757 mmHg 87%
    14:00 +5°C° 0 mm 1 mps 758 mmHg 90%
    15:00 +4°C° 0 mm 1 mps 758 mmHg 92%
    16:00 +4°C° 0 mm 1 mps 758 mmHg 95%
    17:00 +4°C° 0 mm 1 mps 758 mmHg 96%
    18:00 +4°C° 0 mm 1 mps 759 mmHg 97%
    19:00 +4°C° 0 mm 1 mps 759 mmHg 98%
    20:00 +4°C° 0 mm 1 mps 759 mmHg 98%
    21:00 +4°C° 0 mm 1 mps 759 mmHg 98%
    22:00 +4°C° 0 mm 1 mps 759 mmHg 98%
    23:00 +4°C° 0 mm 1 mps 759 mmHg 98%

    Day after tomorrow, 21 November, Thursday

    Time Temperature Precipitation Wind Pressure Humidity
    00:00 +4°C° 0 mm 1 mps 759 mmHg 98%
    01:00 +3°C° 0 mm 2 mps 759 mmHg 98%
    02:00 +3°C° 0 mm 2 mps 759 mmHg 98%
    03:00 +4°C° 0 mm 2 mps 758 mmHg 98%
    04:00 +4°C° 0 mm 2 mps 758 mmHg 98%
    05:00 +4°C° 0 mm 2 mps 758 mmHg 97%
    06:00 +4°C° 0 mm 2 mps 758 mmHg 97%
    07:00 +4°C° 0 mm 2 mps 758 mmHg 97%
    08:00 +5°C° 0.1 mm 2 mps 758 mmHg 97%
    09:00 +4°C° 0.1 mm 3 mps 758 mmHg 97%
    10:00 +4°C° 0.1 mm 3 mps 758 mmHg 97%
    11:00 +4°C° 0 mm 3 mps 758 mmHg 95%
    12:00 +4°C° 0 mm 3 mps 757 mmHg 94%
    13:00 +5°C° 0 mm 3 mps 757 mmHg 93%
    14:00 +5°C° 0 mm 3 mps 757 mmHg 92%
    15:00 +4°C° 0 mm 3 mps 757 mmHg 92%
    16:00 +4°C° 0 mm 3 mps 757 mmHg 92%
    17:00 +4°C° 0 mm 3 mps 757 mmHg 92%
    18:00 +4°C° 0 mm 3 mps 757 mmHg 93%
    19:00 +4°C° 0 mm 3 mps 757 mmHg 93%
    20:00 +4°C° 0 mm 3 mps 757 mmHg 93%
    21:00 +4°C° 0 mm 3 mps 757 mmHg 94%
    22:00 +5°C° 0 mm 2 mps 757 mmHg 95%
    23:00 +4°C° 0 mm 3 mps 757 mmHg 95%

    22 November, Friday

    Time Temperature Precipitation Wind Pressure Humidity
    00:00 +4°C° 0 mm 3 mps 756 mmHg 95%
    01:00 +4°C° 0 mm 3 mps 756 mmHg 95%
    02:00 +4°C° 0.1 mm 3 mps 756 mmHg 95%
    03:00 +4°C° 0.1 mm 3 mps 756 mmHg 95%
    04:00 +4°C° 0.1 mm 3 mps 755 mmHg 95%
    05:00 +4°C° 0.3 mm 3 mps 755 mmHg 95%
    06:00 +4°C° 0.3 mm 3 mps 755 mmHg 95%
    07:00 +4°C° 0.3 mm 3 mps 755 mmHg 95%
    08:00 +4°C° 0.3 mm 3 mps 755 mmHg 94%
    09:00 +4°C° 0.3 mm 3 mps 755 mmHg 93%
    10:00 +4°C° 0.3 mm 3 mps 755 mmHg 93%
    11:00 +4°C° 0.1 mm 3 mps 755 mmHg 92%
    12:00 +4°C° 0.1 mm 3 mps 755 mmHg 91%
    13:00 +4°C° 0.1 mm 4 mps 754 mmHg 90%
    14:00 +4°C° 0.2 mm 3 mps 754 mmHg 91%
    15:00 +4°C° 0.2 mm 3 mps 754 mmHg 91%
    16:00 +4°C° 0.2 mm 3 mps 754 mmHg 92%
    17:00 +4°C° 0.3 mm 3 mps 754 mmHg 93%
    18:00 +4°C° 0.3 mm 3 mps 753 mmHg 93%
    19:00 +4°C° 0.3 mm 3 mps 753 mmHg 94%
    20:00 +4°C° 0.3 mm 3 mps 753 mmHg 94%
    21:00 +4°C° 0.3 mm 3 mps 753 mmHg 94%
    22:00 +4°C° 0.3 mm 3 mps 753 mmHg 95%
    23:00 +4°C° 0.3 mm 3 mps 753 mmHg 95%

    23 November, Saturday

    Time Temperature Precipitation Wind Pressure Humidity
    00:00 +4°C° 0.3 mm 3 mps 752 mmHg 95%
    01:00 +4°C° 0.3 mm 3 mps 752 mmHg 95%
    02:00 +4°C° 0.3 mm 3 mps 752 mmHg 95%
    03:00 +4°C° 0.3 mm 3 mps 752 mmHg 96%
    04:00 +4°C° 0.3 mm 3 mps 752 mmHg 96%
    05:00 +5°C° 0.2 mm 2 mps 752 mmHg 96%
    06:00 +5°C° 0.2 mm 2 mps 752 mmHg 97%
    07:00 +5°C° 0.2 mm 2 mps 752 mmHg 97%
    08:00 +5°C° 0.2 mm 2 mps 752 mmHg 97%
    09:00 +5°C° 0.2 mm 2 mps 752 mmHg 98%
    10:00 +5°C° 0.2 mm 2 mps 752 mmHg 98%
    11:00 +6°C° 0.1 mm 2 mps 752 mmHg 98%
    12:00 +7°C° 0.1 mm 1 mps 752 mmHg 97%
    13:00 +7°C° 0.1 mm 1 mps 753 mmHg 97%
    14:00 +7°C° 0.2 mm 1 mps 753 mmHg 97%
    15:00 +7°C° 0.2 mm 1 mps 753 mmHg 97%
    16:00 +7°C° 0.2 mm 1 mps 753 mmHg 97%
    17:00 +7°C° 0.1 mm 1 mps 753 mmHg 97%
    18:00 +6°C° 0.1 mm 1 mps 753 mmHg 97%
    19:00 +5°C° 0.1 mm 2 mps 753 mmHg 97%
    20:00 +6°C° 0 mm 1 mps 753 mmHg 97%
    21:00 +6°C° 0 mm 1 mps 754 mmHg 97%
    22:00 +6°C° 0 mm 1 mps 754 mmHg 97%
    23:00 +6°C° 0 mm 1 mps 754 mmHg 97%

    24 November, Sunday

    Time Temperature Precipitation Wind Pressure Humidity
    00:00 +6°C° 0 mm 1 mps 754 mmHg 97%
    01:00 +6°C° 0 mm 1 mps 754 mmHg 97%
    02:00 +6°C° 0 mm 1 mps 754 mmHg 96%
    03:00 +6°C° 0 mm 1 mps 754 mmHg 96%
    04:00 +6°C° 0 mm 1 mps 754 mmHg 96%
    05:00 +5°C° 0 mm 1 mps 754 mmHg 96%
    06:00 +5°C° 0 mm 1 mps 754 mmHg 95%
    07:00 +5°C° 0 mm 1 mps 754 mmHg 95%
    08:00 +5°C° 0 mm 1 mps 754 mmHg 94%
    09:00 +5°C° 0 mm 1 mps 754 mmHg 93%
    10:00 +4°C° 0 mm 2 mps 754 mmHg 92%
    11:00 +4°C° 0 mm 2 mps 754 mmHg 91%
    12:00 +4°C° 0 mm 2 mps 754 mmHg 90%
    13:00 +4°C° 0 mm 2 mps 754 mmHg 88%
    14:00 +4°C° 0 mm 2 mps 754 mmHg 89%
    15:00 +4°C° 0 mm 2 mps 753 mmHg 90%
    16:00 +3°C° 0 mm 2 mps 753 mmHg 91%
    17:00 +3°C° 0 mm 2 mps 753 mmHg 91%
    18:00 +3°C° 0 mm 2 mps 753 mmHg 91%
    19:00 +2°C° 0 mm 3 mps 753 mmHg 91%
    20:00 +3°C° 0.1 mm 2 mps 753 mmHg 91%
    21:00 +3°C° 0.1 mm 2 mps 752 mmHg 91%
    22:00 +3°C° 0.1 mm 2 mps 752 mmHg 91%
    23:00 +3°C° 0.2 mm 2 mps 752 mmHg 91%
    Show more